Time,TemperatureF,DewpointF,PressureIn,WindDirection,WindDirectionDegrees,WindSpeedMPH,WindSpeedGustMPH,Humidity,HourlyPrecipIn,Conditions,Clouds,dailyrainin,SoftwareType,DateUTC
2013-11-09 00:01:00,46.8,41.1,29.96,East,90,0.0,0.0,80,0.00,,,0.00,WUHU216HW,2013-11-09 08:01:00,
2013-11-09 00:06:00,46.6,40.9,29.96,East,90,0.0,0.0,80,0.00,,,0.00,WUHU216HW,2013-11-09 08:06:00,
2013-11-09 00:11:00,46.4,40.7,29.95,ENE,68,0.4,0.7,80,0.00,,,0.00,WUHU216HW,2013-11-09 08:11:00,
2013-11-09 00:16:00,46.4,40.7,29.95,ENE,68,0.0,0.7,80,0.00,,,0.00,WUHU216HW,2013-11-09 08:16:00,
2013-11-09 00:21:00,46.4,41.0,29.95,ENE,68,0.0,0.2,81,0.00,,,0.00,WUHU216HW,2013-11-09 08:21:00,
2013-11-09 00:26:00,46.3,40.8,29.95,ENE,68,0.0,0.4,81,0.00,,,0.00,WUHU216HW,2013-11-09 08:26:00,
2013-11-09 00:31:00,46.1,40.6,29.95,ENE,68,0.0,0.4,81,0.00,,,0.00,WUHU216HW,2013-11-09 08:31:00,
2013-11-09 00:36:00,45.9,40.4,29.95,ENE,68,0.0,0.0,81,0.00,,,0.00,WUHU216HW,2013-11-09 08:36:00,
2013-11-09 00:41:00,45.7,40.2,29.95,ENE,68,0.0,0.0,81,0.00,,,0.00,WUHU216HW,2013-11-09 08:41:00,
2013-11-09 00:46:00,45.7,40.2,29.95,ENE,68,0.0,0.0,81,0.00,,,0.00,WUHU216HW,2013-11-09 08:46:00,
2013-11-09 00:51:00,45.7,40.2,29.95,ENE,68,0.0,0.0,81,0.00,,,0.00,WUHU216HW,2013-11-09 08:51:00,
2013-11-09 00:56:00,45.5,40.1,29.95,ENE,68,0.4,0.4,81,0.00,,,0.00,WUHU216HW,2013-11-09 08:56:00,
2013-11-09 01:01:00,45.4,39.9,29.95,ENE,68,0.2,0.4,81,0.00,,,0.00,WUHU216HW,2013-11-09 09:01:00,
2013-11-09 01:06:00,45.4,39.9,29.95,ENE,68,0.0,0.4,81,0.00,,,0.00,WUHU216HW,2013-11-09 09:06:00,
2013-11-09 01:11:00,45.2,39.7,29.95,ENE,68,0.0,0.2,81,0.00,,,0.00,WUHU216HW,2013-11-09 09:11:00,
2013-11-09 01:16:00,45.0,39.5,29.95,ENE,68,0.0,0.2,81,0.00,,,0.00,WUHU216HW,2013-11-09 09:16:00,
2013-11-09 01:21:00,45.0,39.9,29.95,ENE,68,0.0,0.2,82,0.00,,,0.00,WUHU216HW,2013-11-09 09:21:00,
2013-11-09 01:26:00,44.8,39.7,29.95,ENE,68,0.0,0.0,82,0.00,,,0.00,WUHU216HW,2013-11-09 09:26:00,
2013-11-09 01:31:00,44.8,39.7,29.95,ENE,68,0.0,0.0,82,0.00,,,0.00,WUHU216HW,2013-11-09 09:31:00,
2013-11-09 01:36:00,44.6,39.5,29.95,ENE,68,0.4,1.1,82,0.00,,,0.00,WUHU216HW,2013-11-09 09:36:00,
2013-11-09 01:41:00,44.6,39.5,29.95,ENE,68,0.0,1.1,82,0.00,,,0.00,WUHU216HW,2013-11-09 09:41:00,
2013-11-09 01:46:00,44.5,39.3,29.95,ENE,68,0.2,0.4,82,0.00,,,0.00,WUHU216HW,2013-11-09 09:46:00,
2013-11-09 01:51:00,44.5,39.3,29.95,ENE,68,0.0,0.4,82,0.00,,,0.00,WUHU216HW,2013-11-09 09:51:00,
2013-11-09 01:56:00,44.3,39.4,29.95,ENE,68,0.0,0.0,83,0.00,,,0.00,WUHU216HW,2013-11-09 09:56:00,
2013-11-09 02:01:00,44.3,39.2,29.95,ENE,68,0.0,0.0,82,0.00,,,0.00,WUHU216HW,2013-11-09 10:01:00,
2013-11-09 02:06:00,44.1,39.2,29.95,ENE,68,0.0,0.0,83,0.00,,,0.00,WUHU216HW,2013-11-09 10:06:00,
2013-11-09 02:11:00,43.9,39.1,29.95,ENE,68,0.0,0.4,83,0.00,,,0.00,WUHU216HW,2013-11-09 10:11:00,
2013-11-09 02:16:00,43.9,39.1,29.96,ENE,68,0.0,0.4,83,0.00,,,0.00,WUHU216HW,2013-11-09 10:16:00,
2013-11-09 02:21:00,43.9,39.1,29.95,ENE,68,0.0,0.4,83,0.00,,,0.00,WUHU216HW,2013-11-09 10:21:00,
2013-11-09 02:26:00,43.7,38.9,29.96,ENE,68,0.0,0.4,83,0.00,,,0.00,WUHU216HW,2013-11-09 10:26:00,
2013-11-09 02:31:00,43.7,38.9,29.96,ENE,68,0.0,0.0,83,0.00,,,0.00,WUHU216HW,2013-11-09 10:31:00,
2013-11-09 02:36:00,43.6,38.7,29.96,ENE,68,0.0,0.0,83,0.00,,,0.00,WUHU216HW,2013-11-09 10:36:00,
2013-11-09 02:41:00,43.6,39.1,29.96,ENE,68,0.4,0.4,84,0.00,,,0.00,WUHU216HW,2013-11-09 10:41:00,
2013-11-09 02:46:00,43.6,39.1,29.96,ENE,68,0.0,0.4,84,0.00,,,0.00,WUHU216HW,2013-11-09 10:46:00,
2013-11-09 02:51:00,43.6,39.1,29.96,ENE,68,0.0,0.4,84,0.00,,,0.00,WUHU216HW,2013-11-09 10:51:00,
2013-11-09 02:56:00,43.6,39.1,29.96,ENE,68,0.2,0.2,84,0.00,,,0.00,WUHU216HW,2013-11-09 10:56:00,
2013-11-09 03:01:00,43.4,38.9,29.96,ENE,68,0.2,0.4,84,0.00,,,0.00,WUHU216HW,2013-11-09 11:01:00,
2013-11-09 03:06:00,43.4,38.9,29.96,ENE,68,0.0,0.4,84,0.00,,,0.00,WUHU216HW,2013-11-09 11:06:00,
2013-11-09 03:11:00,43.2,38.7,29.96,ENE,68,0.0,0.4,84,0.00,,,0.00,WUHU216HW,2013-11-09 11:11:00,
2013-11-09 03:16:00,43.2,39.0,29.96,ENE,68,0.0,0.2,85,0.00,,,0.00,WUHU216HW,2013-11-09 11:16:00,
2013-11-09 03:21:00,43.2,39.0,29.96,ENE,68,0.0,0.0,85,0.00,,,0.00,WUHU216HW,2013-11-09 11:21:00,
2013-11-09 03:26:00,43.0,38.8,29.96,ENE,68,0.0,0.0,85,0.00,,,0.00,WUHU216HW,2013-11-09 11:26:00,
2013-11-09 03:31:00,42.8,38.6,29.96,ENE,68,0.2,0.4,85,0.00,,,0.00,WUHU216HW,2013-11-09 11:31:00,
2013-11-09 03:36:00,42.8,38.6,29.96,ENE,68,0.0,0.4,85,0.00,,,0.00,WUHU216HW,2013-11-09 11:36:00,
2013-11-09 03:41:00,42.8,38.6,29.96,ENE,68,0.0,0.0,85,0.00,,,0.00,WUHU216HW,2013-11-09 11:41:00,
2013-11-09 03:46:00,42.7,38.4,29.96,ENE,68,0.2,0.4,85,0.00,,,0.00,WUHU216HW,2013-11-09 11:46:00,
2013-11-09 03:51:00,42.7,38.4,29.96,ENE,68,0.0,0.4,85,0.00,,,0.00,WUHU216HW,2013-11-09 11:51:00,
2013-11-09 03:56:00,42.7,38.4,29.96,East,90,0.0,0.4,85,0.00,,,0.00,WUHU216HW,2013-11-09 11:56:00,
2013-11-09 04:01:00,42.5,38.3,29.96,ESE,113,0.4,0.4,85,0.00,,,0.00,WUHU216HW,2013-11-09 12:01:00,
2013-11-09 04:06:00,42.5,38.3,29.96,East,90,0.0,0.4,85,0.00,,,0.00,WUHU216HW,2013-11-09 12:06:00,
2013-11-09 04:11:00,42.5,38.3,29.96,East,90,0.0,0.4,85,0.00,,,0.00,WUHU216HW,2013-11-09 12:11:00,
2013-11-09 04:16:00,42.5,38.3,29.96,East,90,0.0,0.4,85,0.00,,,0.00,WUHU216HW,2013-11-09 12:16:00,
2013-11-09 04:21:00,42.3,38.1,29.96,East,90,0.0,0.0,85,0.00,,,0.00,WUHU216HW,2013-11-09 12:21:00,
2013-11-09 04:26:00,42.1,37.9,29.96,East,90,0.0,0.0,85,0.00,,,0.00,WUHU216HW,2013-11-09 12:26:00,
2013-11-09 04:31:00,42.1,37.9,29.96,East,90,0.0,0.0,85,0.00,,,0.00,WUHU216HW,2013-11-09 12:31:00,
2013-11-09 04:36:00,42.1,37.9,29.96,East,90,0.0,0.4,85,0.00,,,0.00,WUHU216HW,2013-11-09 12:36:00,
2013-11-09 04:41:00,41.9,38.0,29.96,East,90,0.0,0.4,86,0.00,,,0.00,WUHU216HW,2013-11-09 12:41:00,
2013-11-09 04:46:00,41.8,37.8,29.96,East,90,0.0,0.0,86,0.00,,,0.00,WUHU216HW,2013-11-09 12:46:00,
2013-11-09 04:51:00,41.8,37.8,29.96,East,90,0.0,0.0,86,0.00,,,0.00,WUHU216HW,2013-11-09 12:51:00,
2013-11-09 04:56:00,41.6,37.4,29.96,East,90,0.2,0.4,85,0.00,,,0.00,WUHU216HW,2013-11-09 12:56:00,
2013-11-09 05:01:00,41.6,37.4,29.96,East,90,0.2,0.4,85,0.00,,,0.00,WUHU216HW,2013-11-09 13:01:00,
2013-11-09 05:06:00,41.6,37.4,29.97,East,90,0.0,0.4,85,0.00,,,0.00,WUHU216HW,2013-11-09 13:06:00,
2013-11-09 05:11:00,41.4,37.2,29.97,East,90,0.0,0.2,85,0.00,,,0.00,WUHU216HW,2013-11-09 13:11:00,
2013-11-09 05:16:00,41.4,37.2,29.97,East,90,0.0,0.2,85,0.00,,,0.00,WUHU216HW,2013-11-09 13:16:00,
2013-11-09 05:21:00,41.4,37.2,29.97,East,90,0.0,0.0,85,0.00,,,0.00,WUHU216HW,2013-11-09 13:21:00,
2013-11-09 05:26:00,41.2,37.0,29.97,East,90,0.0,0.0,85,0.00,,,0.00,WUHU216HW,2013-11-09 13:26:00,
2013-11-09 05:31:00,41.2,37.0,29.96,East,90,0.2,0.2,85,0.00,,,0.00,WUHU216HW,2013-11-09 13:31:00,
2013-11-09 05:36:00,41.0,36.8,29.97,East,90,0.2,0.2,85,0.00,,,0.00,WUHU216HW,2013-11-09 13:36:00,
2013-11-09 05:41:00,41.0,36.8,29.97,East,90,0.0,0.2,85,0.00,,,0.00,WUHU216HW,2013-11-09 13:41:00,
2013-11-09 05:46:00,40.9,36.9,29.97,East,90,0.0,0.0,86,0.00,,,0.00,WUHU216HW,2013-11-09 13:46:00,
2013-11-09 05:51:00,40.9,36.9,29.97,ENE,68,0.0,0.0,86,0.00,,,0.00,WUHU216HW,2013-11-09 13:51:00,
2013-11-09 05:56:00,40.9,36.9,29.97,ENE,68,0.2,0.4,86,0.00,,,0.00,WUHU216HW,2013-11-09 13:56:00,
2013-11-09 06:01:00,40.9,36.9,29.97,ENE,68,0.0,0.4,86,0.00,,,0.00,WUHU216HW,2013-11-09 14:01:00,
2013-11-09 06:06:00,40.7,36.8,29.96,ENE,68,0.0,0.4,86,0.00,,,0.00,WUHU216HW,2013-11-09 14:06:00,
2013-11-09 06:11:00,40.7,36.8,29.97,ENE,68,0.0,0.0,86,0.00,,,0.00,WUHU216HW,2013-11-09 14:11:00,
2013-11-09 06:16:00,40.7,36.8,29.97,ENE,68,0.0,0.0,86,0.00,,,0.00,WUHU216HW,2013-11-09 14:16:00,
2013-11-09 06:21:00,40.5,36.6,29.97,ENE,68,0.4,0.4,86,0.00,,,0.00,WUHU216HW,2013-11-09 14:21:00,
2013-11-09 06:26:00,40.5,36.6,29.97,ENE,68,0.2,0.4,86,0.00,,,0.00,WUHU216HW,2013-11-09 14:26:00,
2013-11-09 06:31:00,40.3,36.5,29.97,ENE,68,0.0,0.4,86,0.00,,,0.00,WUHU216HW,2013-11-09 14:31:00,
2013-11-09 06:36:00,40.3,36.5,29.97,ENE,68,0.4,0.4,86,0.00,,,0.00,WUHU216HW,2013-11-09 14:36:00,
2013-11-09 06:41:00,40.3,36.5,29.97,ENE,68,0.4,0.4,86,0.00,,,0.00,WUHU216HW,2013-11-09 14:41:00,
2013-11-09 06:46:00,40.1,36.3,29.97,ENE,68,0.0,0.4,86,0.00,,,0.00,WUHU216HW,2013-11-09 14:46:00,
2013-11-09 06:51:00,40.1,36.3,29.97,ENE,68,0.0,0.4,86,0.00,,,0.00,WUHU216HW,2013-11-09 14:51:00,
2013-11-09 06:56:00,40.1,36.3,29.97,ENE,68,0.0,0.0,86,0.00,,,0.00,WUHU216HW,2013-11-09 14:56:00,
2013-11-09 07:01:00,40.1,36.3,29.98,ENE,68,0.0,0.0,86,0.00,,,0.00,WUHU216HW,2013-11-09 15:01:00,
2013-11-09 07:06:00,40.1,36.3,29.98,ENE,68,0.0,0.0,86,0.00,,,0.00,WUHU216HW,2013-11-09 15:06:00,
2013-11-09 07:11:00,40.1,36.5,29.98,ENE,68,0.0,0.4,87,0.00,,,0.00,WUHU216HW,2013-11-09 15:11:00,
2013-11-09 07:16:00,40.3,36.7,29.98,ENE,68,0.0,0.4,87,0.00,,,0.00,WUHU216HW,2013-11-09 15:16:00,
2013-11-09 07:21:00,40.3,36.7,29.98,ENE,68,0.0,0.4,87,0.00,,,0.00,WUHU216HW,2013-11-09 15:21:00,
2013-11-09 07:26:00,40.5,36.9,29.98,ENE,68,0.0,0.0,87,0.00,,,0.00,WUHU216HW,2013-11-09 15:26:00,
2013-11-09 07:31:00,40.7,37.1,29.98,ENE,68,0.0,0.0,87,0.00,,,0.00,WUHU216HW,2013-11-09 15:31:00,
2013-11-09 07:36:00,40.9,37.3,29.98,ENE,68,0.0,0.0,87,0.00,,,0.00,WUHU216HW,2013-11-09 15:36:00,
2013-11-09 07:41:00,41.2,37.9,29.98,ENE,68,0.0,0.0,88,0.00,,,0.00,WUHU216HW,2013-11-09 15:41:00,
2013-11-09 07:46:00,41.4,38.1,29.98,ENE,68,0.0,0.0,88,0.00,,,0.00,WUHU216HW,2013-11-09 15:46:00,
2013-11-09 07:51:00,41.9,39.0,29.98,ENE,68,0.0,0.0,89,0.00,,,0.00,WUHU216HW,2013-11-09 15:51:00,
2013-11-09 07:56:00,42.3,39.3,29.99,ENE,68,0.0,0.0,89,0.00,,,0.00,WUHU216HW,2013-11-09 15:56:00,
2013-11-09 08:01:00,42.7,39.7,29.99,ENE,68,0.0,0.0,89,0.00,,,0.00,WUHU216HW,2013-11-09 16:01:00,
2013-11-09 08:06:00,43.2,40.5,29.99,ENE,68,0.0,0.0,90,0.00,,,0.00,WUHU216HW,2013-11-09 16:06:00,
2013-11-09 08:11:00,43.7,41.0,29.99,ENE,68,0.0,0.0,90,0.00,,,0.00,WUHU216HW,2013-11-09 16:11:00,
2013-11-09 08:16:00,44.5,41.8,29.99,East,90,0.0,0.0,90,0.00,,,0.00,WUHU216HW,2013-11-09 16:16:00,
2013-11-09 08:21:00,45.2,42.8,29.99,East,90,0.0,0.0,91,0.00,,,0.00,WUHU216HW,2013-11-09 16:21:00,
2013-11-09 08:26:00,46.1,43.7,29.99,East,90,0.2,0.2,91,0.00,,,0.00,WUHU216HW,2013-11-09 16:26:00,
2013-11-09 08:31:00,48.1,45.6,29.99,East,90,0.0,0.2,91,0.00,,,0.00,WUHU216HW,2013-11-09 16:31:00,
2013-11-09 08:36:00,49.5,47.0,29.99,East,90,0.0,0.0,91,0.00,,,0.00,WUHU216HW,2013-11-09 16:36:00,
2013-11-09 08:41:00,50.0,46.9,29.99,East,90,0.0,0.0,89,0.00,,,0.00,WUHU216HW,2013-11-09 16:41:00,
2013-11-09 08:46:00,50.4,46.9,29.99,WSW,248,0.4,0.7,88,0.00,,,0.00,WUHU216HW,2013-11-09 16:46:00,
2013-11-09 08:51:00,50.4,46.6,29.99,West,270,0.4,1.6,87,0.00,,,0.00,WUHU216HW,2013-11-09 16:51:00,
2013-11-09 08:56:00,50.6,46.8,29.99,WNW,293,0.7,1.8,87,0.00,,,0.00,WUHU216HW,2013-11-09 16:56:00,
2013-11-09 09:01:00,50.8,46.6,29.99,SW,225,1.1,1.8,86,0.00,,,0.00,WUHU216HW,2013-11-09 17:01:00,
2013-11-09 09:06:00,51.1,46.7,30.00,WSW,248,1.1,1.8,85,0.00,,,0.00,WUHU216HW,2013-11-09 17:06:00,
2013-11-09 09:11:00,51.3,46.9,29.99,WSW,248,0.9,1.8,85,0.00,,,0.00,WUHU216HW,2013-11-09 17:11:00,
2013-11-09 09:16:00,51.8,47.2,29.99,West,270,1.6,3.4,84,0.00,,,0.00,WUHU216HW,2013-11-09 17:16:00,
2013-11-09 09:21:00,52.6,46.6,29.99,WSW,248,1.3,3.4,80,0.00,,,0.00,WUHU216HW,2013-11-09 17:21:00,
2013-11-09 09:26:00,53.6,47.0,29.99,WNW,293,2.0,4.5,78,0.00,,,0.00,WUHU216HW,2013-11-09 17:26:00,
2013-11-09 09:31:00,54.4,47.0,29.99,WNW,293,2.7,4.5,76,0.00,,,0.00,WUHU216HW,2013-11-09 17:31:00,
2013-11-09 09:36:00,55.1,47.3,29.99,WNW,293,2.5,2.9,75,0.00,,,0.00,WUHU216HW,2013-11-09 17:36:00,
2013-11-09 09:41:00,55.4,47.3,29.99,West,270,1.1,3.4,74,0.00,,,0.00,WUHU216HW,2013-11-09 17:41:00,
2013-11-09 09:46:00,55.8,47.3,29.99,WNW,293,0.9,3.4,73,0.00,,,0.00,WUHU216HW,2013-11-09 17:46:00,
2013-11-09 09:51:00,56.3,47.4,29.99,WNW,293,3.4,3.4,72,0.00,,,0.00,WUHU216HW,2013-11-09 17:51:00,
2013-11-09 09:56:00,56.9,46.8,29.99,NNW,338,1.3,4.0,69,0.00,,,0.00,WUHU216HW,2013-11-09 17:56:00,
2013-11-09 10:01:00,57.4,47.4,29.99,WNW,293,1.8,4.0,69,0.00,,,0.00,WUHU216HW,2013-11-09 18:01:00,
2013-11-09 10:06:00,58.0,47.1,29.99,WNW,293,3.4,3.4,67,0.00,,,0.00,WUHU216HW,2013-11-09 18:06:00,
2013-11-09 10:11:00,58.7,47.4,29.99,NNE,23,0.2,3.4,66,0.00,,,0.00,WUHU216HW,2013-11-09 18:11:00,
2013-11-09 10:16:00,59.4,47.2,30.00,NW,315,0.9,4.5,64,0.00,,,0.00,WUHU216HW,2013-11-09 18:16:00,
2013-11-09 10:21:00,59.9,47.7,29.99,WSW,248,1.3,4.5,64,0.00,,,0.00,WUHU216HW,2013-11-09 18:21:00,
2013-11-09 10:26:00,60.5,48.2,29.99,WNW,293,2.9,5.4,64,0.00,,,0.00,WUHU216HW,2013-11-09 18:26:00,
2013-11-09 10:31:00,60.8,47.8,29.99,West,270,0.2,5.4,62,0.00,,,0.00,WUHU216HW,2013-11-09 18:31:00,
2013-11-09 10:36:00,61.4,48.7,29.99,WNW,293,3.4,4.0,63,0.00,,,0.00,WUHU216HW,2013-11-09 18:36:00,
2013-11-09 10:41:00,61.7,48.3,29.99,NW,315,2.2,3.4,61,0.00,,,0.00,WUHU216HW,2013-11-09 18:41:00,
2013-11-09 10:46:00,61.9,48.0,29.98,WNW,293,4.7,4.7,60,0.00,,,0.00,WUHU216HW,2013-11-09 18:46:00,
2013-11-09 10:51:00,62.1,47.6,29.99,NNW,338,4.3,4.7,59,0.00,,,0.00,WUHU216HW,2013-11-09 18:51:00,
2013-11-09 10:56:00,62.1,47.6,29.99,WNW,293,3.8,4.3,59,0.00,,,0.00,WUHU216HW,2013-11-09 18:56:00,
2013-11-09 11:01:00,62.3,47.8,29.99,West,270,3.4,4.9,59,0.00,,,0.00,WUHU216HW,2013-11-09 19:01:00,
2013-11-09 11:06:00,62.6,48.2,29.99,WNW,293,2.5,5.4,59,0.00,,,0.00,WUHU216HW,2013-11-09 19:06:00,
2013-11-09 11:11:00,63.0,48.4,29.98,West,270,1.8,5.4,59,0.00,,,0.00,WUHU216HW,2013-11-09 19:11:00,
2013-11-09 11:16:00,63.4,48.2,29.98,West,270,3.1,3.6,58,0.00,,,0.00,WUHU216HW,2013-11-09 19:16:00,
2013-11-09 11:21:00,63.7,48.2,29.98,WSW,248,2.7,4.0,57,0.00,,,0.00,WUHU216HW,2013-11-09 19:21:00,
2013-11-09 11:26:00,64.3,48.2,29.98,West,270,1.3,5.1,56,0.00,,,0.00,WUHU216HW,2013-11-09 19:26:00,
2013-11-09 11:31:00,64.8,48.2,29.97,WSW,248,2.0,5.1,55,0.00,,,0.00,WUHU216HW,2013-11-09 19:31:00,
2013-11-09 11:36:00,65.3,49.1,29.97,West,270,1.8,2.5,56,0.00,,,0.00,WUHU216HW,2013-11-09 19:36:00,
2013-11-09 11:41:00,65.9,48.8,29.97,West,270,1.6,2.5,54,0.00,,,0.00,WUHU216HW,2013-11-09 19:41:00,
2013-11-09 11:46:00,66.2,49.6,29.97,WSW,248,1.8,2.2,55,0.00,,,0.00,WUHU216HW,2013-11-09 19:46:00,
2013-11-09 11:51:00,66.6,49.0,29.97,SE,135,1.1,2.5,53,0.00,,,0.00,WUHU216HW,2013-11-09 19:51:00,
2013-11-09 11:56:00,67.1,49.4,29.97,SSW,203,1.1,2.7,53,0.00,,,0.00,WUHU216HW,2013-11-09 19:56:00,
2013-11-09 12:01:00,67.5,49.8,29.96,SW,225,1.6,2.7,53,0.00,,,0.00,WUHU216HW,2013-11-09 20:01:00,
2013-11-09 12:06:00,67.9,49.6,29.97,SW,225,1.8,3.1,52,0.00,,,0.00,WUHU216HW,2013-11-09 20:06:00,
2013-11-09 12:11:00,68.2,49.4,29.96,WSW,248,0.4,3.1,51,0.00,,,0.00,WUHU216HW,2013-11-09 20:11:00,
2013-11-09 12:16:00,68.4,49.6,29.96,SSW,203,1.8,1.8,51,0.00,,,0.00,WUHU216HW,2013-11-09 20:16:00,
2013-11-09 12:21:00,68.6,49.2,29.96,SSW,203,2.2,2.2,50,0.00,,,0.00,WUHU216HW,2013-11-09 20:21:00,
2013-11-09 12:26:00,68.9,48.4,29.96,SW,225,3.8,3.8,48,0.00,,,0.00,WUHU216HW,2013-11-09 20:26:00,
2013-11-09 12:31:00,69.5,50.0,29.96,SW,225,2.5,3.8,50,0.00,,,0.00,WUHU216HW,2013-11-09 20:31:00,
2013-11-09 12:36:00,69.8,49.8,29.95,WSW,248,2.5,3.1,49,0.00,,,0.00,WUHU216HW,2013-11-09 20:36:00,
2013-11-09 12:41:00,70.2,50.1,29.95,WNW,293,1.8,2.5,49,0.00,,,0.00,WUHU216HW,2013-11-09 20:41:00,
2013-11-09 12:46:00,70.7,50.6,29.95,SW,225,0.4,3.6,49,0.00,,,0.00,WUHU216HW,2013-11-09 20:46:00,
2013-11-09 12:51:00,70.9,49.6,29.95,WNW,293,2.2,4.7,47,0.00,,,0.00,WUHU216HW,2013-11-09 20:51:00,
2013-11-09 12:56:00,71.3,50.5,29.95,SW,225,0.7,4.7,48,0.00,,,0.00,WUHU216HW,2013-11-09 20:56:00,
2013-11-09 13:01:00,71.5,50.0,29.95,WNW,293,1.1,5.1,47,0.00,,,0.00,WUHU216HW,2013-11-09 21:01:00,
2013-11-09 13:06:00,71.6,50.2,29.95,NW,315,3.8,5.1,47,0.00,,,0.00,WUHU216HW,2013-11-09 21:06:00,
2013-11-09 13:11:00,72.0,50.6,29.95,SW,225,4.5,4.5,47,0.00,,,0.00,WUHU216HW,2013-11-09 21:11:00,
2013-11-09 13:16:00,72.4,50.3,29.95,West,270,1.6,4.5,46,0.00,,,0.00,WUHU216HW,2013-11-09 21:16:00,
2013-11-09 13:21:00,72.5,49.9,29.95,NW,315,2.5,4.5,45,0.00,,,0.00,WUHU216HW,2013-11-09 21:21:00,
2013-11-09 13:26:00,72.7,50.1,29.94,WNW,293,1.8,2.5,45,0.00,,,0.00,WUHU216HW,2013-11-09 21:26:00,
2013-11-09 13:31:00,73.1,50.3,29.94,NNE,23,0.7,2.2,45,0.00,,,0.00,WUHU216HW,2013-11-09 21:31:00,
2013-11-09 13:36:00,73.3,50.0,29.94,West,270,4.7,4.7,44,0.00,,,0.00,WUHU216HW,2013-11-09 21:36:00,
2013-11-09 13:41:00,73.6,49.7,29.94,NW,315,2.5,4.7,43,0.00,,,0.00,WUHU216HW,2013-11-09 21:41:00,
2013-11-09 13:46:00,73.8,50.4,29.94,NW,315,0.2,3.1,44,0.00,,,0.00,WUHU216HW,2013-11-09 21:46:00,
2013-11-09 13:51:00,74.0,50.0,29.94,WSW,248,2.5,2.5,43,0.00,,,0.00,WUHU216HW,2013-11-09 21:51:00,
2013-11-09 13:56:00,74.0,49.4,29.94,West,270,4.0,4.0,42,0.00,,,0.00,WUHU216HW,2013-11-09 21:56:00,
2013-11-09 14:01:00,74.2,50.1,29.94,WNW,293,0.9,4.0,43,0.00,,,0.00,WUHU216HW,2013-11-09 22:01:00,
2013-11-09 14:06:00,74.5,49.9,29.94,WNW,293,1.8,1.8,42,0.00,,,0.00,WUHU216HW,2013-11-09 22:06:00,
2013-11-09 14:11:00,74.7,50.0,29.94,NNW,338,3.8,3.8,42,0.00,,,0.00,WUHU216HW,2013-11-09 22:11:00,
2013-11-09 14:16:00,74.7,49.4,29.94,WNW,293,2.0,4.5,41,0.00,,,0.00,WUHU216HW,2013-11-09 22:16:00,
2013-11-09 14:21:00,74.9,50.2,29.93,WNW,293,3.1,4.5,42,0.00,,,0.00,WUHU216HW,2013-11-09 22:21:00,
2013-11-09 14:26:00,74.9,49.0,29.94,NNW,338,2.0,4.0,40,0.00,,,0.00,WUHU216HW,2013-11-09 22:26:00,
2013-11-09 14:31:00,75.1,50.4,29.94,NNW,338,1.1,4.0,42,0.00,,,0.00,WUHU216HW,2013-11-09 22:31:00,
2013-11-09 14:36:00,75.2,50.6,29.94,NNW,338,4.0,5.1,42,0.00,,,0.00,WUHU216HW,2013-11-09 22:36:00,
2013-11-09 14:41:00,75.2,50.0,29.94,West,270,4.7,5.4,41,0.00,,,0.00,WUHU216HW,2013-11-09 22:41:00,
2013-11-09 14:46:00,75.1,49.1,29.94,WNW,293,1.8,5.4,40,0.00,,,0.00,WUHU216HW,2013-11-09 22:46:00,
2013-11-09 14:51:00,74.7,49.4,29.94,WNW,293,5.8,6.3,41,0.00,,,0.00,WUHU216HW,2013-11-09 22:51:00,
2013-11-09 14:56:00,74.2,49.6,29.94,West,270,1.1,6.3,42,0.00,,,0.00,WUHU216HW,2013-11-09 22:56:00,
2013-11-09 15:01:00,74.0,49.4,29.94,WNW,293,2.0,4.7,42,0.00,,,0.00,WUHU216HW,2013-11-09 23:01:00,
2013-11-09 15:06:00,73.8,49.9,29.94,WNW,293,0.9,2.5,43,0.00,,,0.00,WUHU216HW,2013-11-09 23:06:00,
2013-11-09 15:11:00,73.6,49.7,29.94,West,270,1.6,1.8,43,0.00,,,0.00,WUHU216HW,2013-11-09 23:11:00,
2013-11-09 15:16:00,73.4,48.9,29.94,WNW,293,1.8,4.3,42,0.00,,,0.00,WUHU216HW,2013-11-09 23:16:00,
2013-11-09 15:21:00,73.4,49.5,29.94,NW,315,1.6,5.1,43,0.00,,,0.00,WUHU216HW,2013-11-09 23:21:00,
2013-11-09 15:26:00,73.1,49.1,29.94,WNW,293,1.1,5.1,43,0.00,,,0.00,WUHU216HW,2013-11-09 23:26:00,
2013-11-09 15:31:00,73.1,49.8,29.94,NNW,338,0.7,3.4,44,0.00,,,0.00,WUHU216HW,2013-11-09 23:31:00,
2013-11-09 15:36:00,72.9,49.6,29.94,WNW,293,2.7,3.4,44,0.00,,,0.00,WUHU216HW,2013-11-09 23:36:00,
2013-11-09 15:41:00,72.7,49.4,29.94,WNW,293,3.8,3.8,44,0.00,,,0.00,WUHU216HW,2013-11-09 23:41:00,
2013-11-09 15:46:00,72.4,49.2,29.94,WNW,293,1.8,4.7,44,0.00,,,0.00,WUHU216HW,2013-11-09 23:46:00,
2013-11-09 15:51:00,72.4,49.2,29.93,WNW,293,1.8,4.7,44,0.00,,,0.00,WUHU216HW,2013-11-09 23:51:00,
2013-11-09 15:56:00,72.0,49.4,29.93,ENE,68,0.4,4.5,45,0.00,,,0.00,WUHU216HW,2013-11-09 23:56:00,
2013-11-09 16:01:00,71.8,49.2,29.93,NW,315,3.1,3.6,45,0.00,,,0.00,WUHU216HW,2013-11-10 00:01:00,
2013-11-09 16:06:00,71.6,49.1,29.93,WNW,293,2.9,3.4,45,0.00,,,0.00,WUHU216HW,2013-11-10 00:06:00,
2013-11-09 16:11:00,71.3,49.3,29.93,SW,225,0.4,3.4,46,0.00,,,0.00,WUHU216HW,2013-11-10 00:11:00,
2013-11-09 16:16:00,70.9,49.0,29.93,NNW,338,0.2,1.1,46,0.00,,,0.00,WUHU216HW,2013-11-10 00:16:00,
2013-11-09 16:21:00,70.6,48.7,29.94,WNW,293,1.1,1.6,46,0.00,,,0.00,WUHU216HW,2013-11-10 00:21:00,
2013-11-09 16:26:00,70.0,48.2,29.93,WSW,248,1.1,1.6,46,0.00,,,0.00,WUHU216HW,2013-11-10 00:26:00,
2013-11-09 16:31:00,69.7,48.4,29.93,NNE,23,0.2,1.1,47,0.00,,,0.00,WUHU216HW,2013-11-10 00:31:00,
2013-11-09 16:36:00,69.3,48.2,29.93,WSW,248,0.2,0.7,47,0.00,,,0.00,WUHU216HW,2013-11-10 00:36:00,
2013-11-09 16:41:00,68.8,47.6,29.93,NNW,338,0.0,0.7,47,0.00,,,0.00,WUHU216HW,2013-11-10 00:41:00,
2013-11-09 16:46:00,68.4,47.9,29.93,NNW,338,0.0,0.4,48,0.00,,,0.00,WUHU216HW,2013-11-10 00:46:00,
2013-11-09 16:51:00,67.7,47.3,29.94,NNW,338,0.0,0.0,48,0.00,,,0.00,WUHU216HW,2013-11-10 00:51:00,
2013-11-09 16:56:00,67.3,47.5,29.94,NNW,338,0.0,0.0,49,0.00,,,0.00,WUHU216HW,2013-11-10 00:56:00,
2013-11-09 17:01:00,66.8,47.6,29.94,NNW,338,0.0,0.0,50,0.00,,,0.00,WUHU216HW,2013-11-10 01:01:00,
2013-11-09 17:06:00,66.2,47.2,29.94,North,0,0.7,0.9,50,0.00,,,0.00,WUHU216HW,2013-11-10 01:06:00,
2013-11-09 17:11:00,65.7,47.1,29.94,North,0,0.0,0.9,51,0.00,,,0.00,WUHU216HW,2013-11-10 01:11:00,
2013-11-09 17:16:00,65.3,47.3,29.94,North,0,0.0,0.7,52,0.00,,,0.00,WUHU216HW,2013-11-10 01:16:00,
2013-11-09 17:21:00,64.8,47.7,29.95,North,0,0.0,0.0,54,0.00,,,0.00,WUHU216HW,2013-11-10 01:21:00,
2013-11-09 17:26:00,64.3,47.2,29.95,NE,45,0.2,0.4,54,0.00,,,0.00,WUHU216HW,2013-11-10 01:26:00,
2013-11-09 17:31:00,63.7,46.6,29.95,ENE,68,0.0,0.4,54,0.00,,,0.00,WUHU216HW,2013-11-10 01:31:00,
2013-11-09 17:36:00,63.2,46.6,29.95,NE,45,0.0,0.7,55,0.00,,,0.00,WUHU216HW,2013-11-10 01:36:00,
2013-11-09 17:41:00,62.6,46.2,29.95,NE,45,0.0,0.7,55,0.00,,,0.00,WUHU216HW,2013-11-10 01:41:00,
2013-11-09 17:46:00,62.3,46.4,29.95,NE,45,0.0,0.0,56,0.00,,,0.00,WUHU216HW,2013-11-10 01:46:00,
2013-11-09 17:51:00,61.7,46.4,29.95,NE,45,0.0,0.0,57,0.00,,,0.00,WUHU216HW,2013-11-10 01:51:00,
2013-11-09 17:56:00,61.4,46.0,29.96,NE,45,0.4,0.4,57,0.00,,,0.00,WUHU216HW,2013-11-10 01:56:00,
2013-11-09 18:01:00,61.0,46.2,29.96,NE,45,0.0,0.4,58,0.00,,,0.00,WUHU216HW,2013-11-10 02:01:00,
2013-11-09 18:06:00,60.5,46.2,29.96,NE,45,0.4,0.4,59,0.00,,,0.00,WUHU216HW,2013-11-10 02:06:00,
2013-11-09 18:11:00,60.1,46.3,29.96,NE,45,0.0,0.4,60,0.00,,,0.00,WUHU216HW,2013-11-10 02:11:00,
2013-11-09 18:16:00,59.8,45.9,29.96,NE,45,0.7,0.7,60,0.00,,,0.00,WUHU216HW,2013-11-10 02:16:00,
2013-11-09 18:21:00,59.2,45.8,29.96,NE,45,0.2,0.7,61,0.00,,,0.00,WUHU216HW,2013-11-10 02:21:00,
2013-11-09 18:26:00,58.9,45.5,29.97,NE,45,0.0,0.4,61,0.00,,,0.00,WUHU216HW,2013-11-10 02:26:00,
2013-11-09 18:31:00,58.5,45.6,29.97,NE,45,0.0,0.0,62,0.00,,,0.00,WUHU216HW,2013-11-10 02:31:00,
2013-11-09 18:36:00,58.1,45.2,29.97,NE,45,0.2,0.2,62,0.00,,,0.00,WUHU216HW,2013-11-10 02:36:00,
2013-11-09 18:41:00,57.6,45.1,29.97,ENE,68,0.7,0.9,63,0.00,,,0.00,WUHU216HW,2013-11-10 02:41:00,
2013-11-09 18:46:00,57.2,44.7,29.97,ENE,68,0.4,0.9,63,0.00,,,0.00,WUHU216HW,2013-11-10 02:46:00,
2013-11-09 18:51:00,57.1,44.6,29.97,ENE,68,0.4,0.7,63,0.00,,,0.00,WUHU216HW,2013-11-10 02:51:00,
2013-11-09 18:56:00,56.5,44.5,29.97,ENE,68,0.4,0.7,64,0.00,,,0.00,WUHU216HW,2013-11-10 02:56:00,
2013-11-09 19:01:00,56.2,44.1,29.97,ENE,68,0.0,0.7,64,0.00,,,0.00,WUHU216HW,2013-11-10 03:01:00,
2013-11-09 19:06:00,56.0,43.9,29.97,ENE,68,0.2,0.7,64,0.00,,,0.00,WUHU216HW,2013-11-10 03:06:00,
2013-11-09 19:11:00,55.6,43.6,29.97,ENE,68,0.2,0.4,64,0.00,,,0.00,WUHU216HW,2013-11-10 03:11:00,
2013-11-09 19:16:00,55.4,43.8,29.97,ENE,68,0.0,0.2,65,0.00,,,0.00,WUHU216HW,2013-11-10 03:16:00,
2013-11-09 19:21:00,55.1,43.5,29.97,ENE,68,0.0,0.2,65,0.00,,,0.00,WUHU216HW,2013-11-10 03:21:00,
2013-11-09 19:26:00,54.9,43.8,29.97,ENE,68,0.0,0.0,66,0.00,,,0.00,WUHU216HW,2013-11-10 03:26:00,
2013-11-09 19:31:00,54.7,43.6,29.97,ENE,68,0.0,0.0,66,0.00,,,0.00,WUHU216HW,2013-11-10 03:31:00,
2013-11-09 19:36:00,54.4,43.7,29.97,ENE,68,0.4,0.9,67,0.00,,,0.00,WUHU216HW,2013-11-10 03:36:00,
2013-11-09 19:41:00,54.0,43.3,29.97,ENE,68,0.0,0.9,67,0.00,,,0.00,WUHU216HW,2013-11-10 03:41:00,
2013-11-09 19:46:00,53.8,43.5,29.97,ENE,68,0.9,0.9,68,0.00,,,0.00,WUHU216HW,2013-11-10 03:46:00,
2013-11-09 19:51:00,53.6,43.3,29.97,ENE,68,0.0,0.9,68,0.00,,,0.00,WUHU216HW,2013-11-10 03:51:00,
2013-11-09 19:56:00,53.6,43.3,29.97,ENE,68,0.0,0.9,68,0.00,,,0.00,WUHU216HW,2013-11-10 03:56:00,
2013-11-09 20:01:00,53.3,43.4,29.97,NE,45,0.0,0.0,69,0.00,,,0.00,WUHU216HW,2013-11-10 04:01:00,
2013-11-09 20:06:00,53.1,43.2,29.97,NE,45,0.0,0.0,69,0.00,,,0.00,WUHU216HW,2013-11-10 04:06:00,
2013-11-09 20:11:00,52.9,43.0,29.98,NE,45,0.2,0.2,69,0.00,,,0.00,WUHU216HW,2013-11-10 04:11:00,
2013-11-09 20:16:00,52.6,42.8,29.98,NE,45,0.2,0.4,69,0.00,,,0.00,WUHU216HW,2013-11-10 04:16:00,
2013-11-09 20:21:00,52.4,42.9,29.98,NE,45,0.4,0.4,70,0.00,,,0.00,WUHU216HW,2013-11-10 04:21:00,
2013-11-09 20:26:00,52.2,42.9,29.98,NE,45,0.0,0.4,70,0.00,,,0.00,WUHU216HW,2013-11-10 04:26:00,
2013-11-09 20:31:00,52.2,43.1,29.98,ENE,68,0.4,0.4,71,0.00,,,0.00,WUHU216HW,2013-11-10 04:31:00,
2013-11-09 20:36:00,51.8,42.5,29.98,ENE,68,0.0,0.4,70,0.00,,,0.00,WUHU216HW,2013-11-10 04:36:00,
2013-11-09 20:41:00,51.7,42.3,29.98,North,0,0.0,0.4,70,0.00,,,0.00,WUHU216HW,2013-11-10 04:41:00,
2013-11-09 20:46:00,51.5,42.5,29.98,ENE,68,0.0,0.7,71,0.00,,,0.00,WUHU216HW,2013-11-10 04:46:00,
2013-11-09 20:51:00,51.3,42.3,29.98,ENE,68,0.4,0.7,71,0.00,,,0.00,WUHU216HW,2013-11-10 04:51:00,
2013-11-09 20:56:00,51.1,42.5,29.98,East,90,0.4,0.9,72,0.00,,,0.00,WUHU216HW,2013-11-10 04:56:00,
2013-11-09 21:01:00,50.9,42.3,29.98,East,90,0.0,0.9,72,0.00,,,0.00,WUHU216HW,2013-11-10 05:01:00,
2013-11-09 21:06:00,50.8,42.1,29.99,East,90,0.0,0.0,72,0.00,,,0.00,WUHU216HW,2013-11-10 05:06:00,
2013-11-09 21:11:00,50.4,41.8,29.99,East,90,0.4,0.4,72,0.00,,,0.00,WUHU216HW,2013-11-10 05:11:00,
2013-11-09 21:16:00,50.2,41.6,29.99,ENE,68,0.4,0.4,72,0.00,,,0.00,WUHU216HW,2013-11-10 05:16:00,
2013-11-09 21:21:00,50.0,41.4,29.99,East,90,0.4,0.4,72,0.00,,,0.00,WUHU216HW,2013-11-10 05:21:00,
2013-11-09 21:26:00,49.9,41.5,29.99,East,90,0.0,0.4,73,0.00,,,0.00,WUHU216HW,2013-11-10 05:26:00,
2013-11-09 21:31:00,49.7,41.3,29.99,East,90,0.0,0.0,73,0.00,,,0.00,WUHU216HW,2013-11-10 05:31:00,
2013-11-09 21:36:00,49.5,41.1,29.99,East,90,0.0,0.0,73,0.00,,,0.00,WUHU216HW,2013-11-10 05:36:00,
2013-11-09 21:41:00,49.3,41.3,29.99,East,90,0.0,0.0,74,0.00,,,0.00,WUHU216HW,2013-11-10 05:41:00,
2013-11-09 21:46:00,49.1,41.1,29.99,East,90,0.0,0.0,74,0.00,,,0.00,WUHU216HW,2013-11-10 05:46:00,
2013-11-09 21:51:00,49.0,41.0,29.99,ENE,68,0.0,0.0,74,0.00,,,0.00,WUHU216HW,2013-11-10 05:51:00,
2013-11-09 21:56:00,48.8,41.1,30.00,ENE,68,0.0,0.4,75,0.00,,,0.00,WUHU216HW,2013-11-10 05:56:00,
2013-11-09 22:01:00,48.6,41.0,30.00,ENE,68,0.0,0.4,75,0.00,,,0.00,WUHU216HW,2013-11-10 06:01:00,
2013-11-09 22:06:00,48.4,40.8,30.00,ENE,68,0.0,0.4,75,0.00,,,0.00,WUHU216HW,2013-11-10 06:06:00,
2013-11-09 22:11:00,48.4,40.8,30.00,ENE,68,0.0,0.0,75,0.00,,,0.00,WUHU216HW,2013-11-10 06:11:00,
2013-11-09 22:16:00,48.2,41.0,30.00,NE,45,0.4,0.4,76,0.00,,,0.00,WUHU216HW,2013-11-10 06:16:00,
2013-11-09 22:21:00,48.1,41.1,30.00,NE,45,0.0,0.4,77,0.00,,,0.00,WUHU216HW,2013-11-10 06:21:00,
2013-11-09 22:26:00,47.9,41.0,30.00,NE,45,0.4,0.4,77,0.00,,,0.00,WUHU216HW,2013-11-10 06:26:00,
2013-11-09 22:31:00,47.9,41.3,30.00,East,90,0.2,1.6,78,0.00,,,0.00,WUHU216HW,2013-11-10 06:31:00,
2013-11-09 22:36:00,47.7,41.1,30.00,East,90,0.0,1.6,78,0.00,,,0.00,WUHU216HW,2013-11-10 06:36:00,
2013-11-09 22:41:00,47.5,40.6,30.00,East,90,0.0,0.4,77,0.00,,,0.00,WUHU216HW,2013-11-10 06:41:00,
2013-11-09 22:46:00,47.5,41.0,30.00,ENE,68,0.4,0.9,78,0.00,,,0.00,WUHU216HW,2013-11-10 06:46:00,
2013-11-09 22:51:00,47.3,40.8,30.00,ENE,68,0.4,1.1,78,0.00,,,0.00,WUHU216HW,2013-11-10 06:51:00,
2013-11-09 22:56:00,47.2,40.7,30.01,ENE,68,0.0,1.1,78,0.00,,,0.00,WUHU216HW,2013-11-10 06:56:00,
2013-11-09 23:01:00,47.2,40.7,30.00,NE,45,0.0,0.9,78,0.00,,,0.00,WUHU216HW,2013-11-10 07:01:00,
2013-11-09 23:06:00,47.2,40.7,30.01,ENE,68,0.4,0.4,78,0.00,,,0.00,WUHU216HW,2013-11-10 07:06:00,
2013-11-09 23:11:00,47.0,40.5,30.01,ENE,68,0.0,0.4,78,0.00,,,0.00,WUHU216HW,2013-11-10 07:11:00,
2013-11-09 23:16:00,47.0,40.5,30.00,ENE,68,0.4,0.4,78,0.00,,,0.00,WUHU216HW,2013-11-10 07:16:00,
2013-11-09 23:21:00,46.8,40.3,30.00,ENE,68,0.0,0.7,78,0.00,,,0.00,WUHU216HW,2013-11-10 07:21:00,
2013-11-09 23:26:00,46.8,40.3,30.00,NE,45,0.0,0.7,78,0.00,,,0.00,WUHU216HW,2013-11-10 07:26:00,
2013-11-09 23:31:00,46.6,40.1,30.00,NNE,23,0.0,0.0,78,0.00,,,0.00,WUHU216HW,2013-11-10 07:31:00,
2013-11-09 23:36:00,46.6,40.1,30.00,WNW,293,0.0,0.4,78,0.00,,,0.00,WUHU216HW,2013-11-10 07:36:00,
2013-11-09 23:41:00,46.4,40.0,30.00,NNE,23,0.2,0.4,78,0.00,,,0.00,WUHU216HW,2013-11-10 07:41:00,
2013-11-09 23:46:00,46.3,40.1,30.00,NNE,23,0.4,0.4,79,0.00,,,0.00,WUHU216HW,2013-11-10 07:46:00,
2013-11-09 23:51:00,46.1,40.0,30.00,NNE,23,0.0,0.4,79,0.00,,,0.00,WUHU216HW,2013-11-10 07:51:00,
2013-11-09 23:56:00,46.1,40.0,30.00,NE,45,0.0,0.4,79,0.00,,,0.00,WUHU216HW,2013-11-10 07:56:00,